Location: *
(53.4003°S, 165.3236°W)
Time: 01:07:05
(UTC+00:00)

Cosmos 2227 Rocket - Pass Details

Date: 11 December 2023
Orbit: 838 x 845 km, 71.0° (Epoch: 24 February)

Event Time Altitude Azimuth Distance (km) Brightness Sun altitude
Exits shadow 12:14:40 - 32° (NNE) 3,343 4.9 -11.6°
Reaches altitude 10° 12:18:07 10° 54° (NE) 2,483 4.5 -11.5°
Maximum altitude 12:20:54 14° 84° (E) 2,218 4.6 -11.3°
Drops below altitude 10° 12:23:43 10° 114° (ESE) 2,499 5.3 -11.2°
Sets 12:27:24 0° 137° (SE) 3,445 6.8 -11.0°
